Overview Statistics Trail Chart Weather Telemetry Raw packets
 

This is the latest recevied weather packets stored in our database for station/object K7PMV-13. If no packets are shown the sender has not sent any weather packets the latest 10 day(s).

<< 54 55 56 57 58 59 60 >>
Time Temp. Humidity Pressure Rain* Wind** Luminosity Snow
1777305927 20.56° C 32% 1011.3 hPa 0 mm - 629 W/m² -
1777305624 19.44° C 34% 1011.2 hPa 0 mm - 613 W/m² -
1777305322 19.44° C 34% 1011.3 hPa 0 mm - 599 W/m² -
1777305019 19.44° C 34% 1011.2 hPa 0 mm - 584 W/m² -
1777304413 18.89° C 35% 1011.3 hPa 0 mm - 550 W/m² -
1777304110 18.89° C 36% 1011.3 hPa 0 mm - 533 W/m² -
1777303808 18.33° C 36% 1011.3 hPa 0 mm - 515 W/m² -
1777303505 18.33° C 37% 1011.2 hPa 0 mm - 497 W/m² -
1777303194 17.78° C 38% 1011.2 hPa 0 mm - 480 W/m² -
1777302892 17.78° C 39% 1011.2 hPa 0 mm - 462 W/m² -
1777302586 17.22° C 40% 1011.1 hPa 0 mm - 445 W/m² -
1777302281 17.22° C 40% 1011.1 hPa 0 mm - 427 W/m² -
1777301977 17.22° C 40% 1011.2 hPa 0 mm - 408 W/m² -
1777301674 16.67° C 41% 1011.2 hPa 0 mm - 390 W/m² -
1777301371 16.67° C 42% 1011.2 hPa 0 mm - 373 W/m² -
1777301069 16.67° C 42% 1011.2 hPa 0 mm - 353 W/m² -
1777300766 16.11° C 42% 1011.2 hPa 0 mm - 334 W/m² -
1777300463 16.11° C 43% 1011.1 hPa 0 mm - 315 W/m² -
1777300161 15.56° C 44% 1011.1 hPa 0 mm - 47 W/m² -
1777299793 15.56° C 44% 1011 hPa 0 mm - 46 W/m² -
1777299490 15° C 45% 1010.9 hPa 0 mm - 44 W/m² -
1777299112 15° C 45% 1010.9 hPa 0 mm - 40 W/m² -
1777298809 14.44° C 45% 1010.9 hPa 0 mm - 39 W/m² -
1777298507 14.44° C 45% 1010.9 hPa 0 mm - 37 W/m² -
1777298204 14.44° C 45% 1010.8 hPa 0 mm - 35 W/m² -

* Rain latest hour (hover to see other rain measurements)
** Current wind speed in m/s (hover to see current wind gust speed)